Weather History for KMKC - September, 2012

Change the Weather History Date:

Saturday, September 1, 2012

  Actual Average Record
Temperature  
Mean Temperature 76 °F -  
Max Temperature 81 °F 86 °F 102 °F (2011)
Min Temperature 71 °F 66 °F 60 °F (2001)
Cooling Degree Days 10    
Growing Degree Days 26 (Base 50)    
Moisture  
Dew Point 69 °F    
Average Humidity 85    
Maximum Humidity 94    
Minimum Humidity 65    
Precipitation  
Precipitation 1.91 in - - ()
Sea Level Pressure  
Sea Level Pressure 29.82 in    
Wind  
Wind Speed 14 mph (North)    
Max Wind Speed 20 mph    
Max Gust Speed 30 mph    
Visibility 6 miles    
Events Rain    
Averages and records for this station are not official NWS values.
T = Trace of Precipitation, MM = Missing Value Source: NWS Daily Summary

Daily Weather History Graph

Daily Weather History Graph

Search for Another Location

Airport or City:

Trip Planner

Search our weather history database for the weather conditions in past years. The results will help you decide how hot, cold, wet, or windy it might be!

Date:

Astronomy

Sep. 01, 2012 Rise Set
Actual Time 6:47 AM CDT 7:48 PM CDT
Civil Twilight 6:20 AM CDT 8:15 PM CDT
Nautical Twilight 5:47 AM CDT 8:47 PM CDT
Astronomical Twilight 5:13 AM CDT 9:21 PM CDT
Moon 8:06 PM CDT (9/1) 7:54 AM CDT (9/1)
Length of Visible Light 13h 55m
Length of Day
13h 00m
Full, 99% of the Moon is Illuminated
Sep 1
Full
Sep 8
Last Quarter
Sep 15
New
Sep 22
First Quarter
Sep 29
Full

Hourly Weather History & Observations

Time (CDT) Temp. Heat Index Dew Point Humidity Pressure Visibility Wind Dir Wind Speed Gust Speed Precip Events Conditions
12:24 AM 71.6 °F - 69.8 °F 94% 29.81 in 2.5 mi North 12.7 mph - 0.02 in Rain Light Rain
12:38 AM 71.6 °F - 69.8 °F 94% 29.81 in 3.0 mi North 17.3 mph 23.0 mph 0.04 in Rain Rain
12:45 AM 71.6 °F - 69.8 °F 94% 29.81 in 4.0 mi North 15.0 mph 23.0 mph 0.05 in Rain Rain
12:54 AM 71.6 °F - 69.8 °F 94% 29.80 in 3.0 mi North 15.0 mph 23.0 mph N/A Rain Heavy Rain
1:02 AM 73.4 °F - 69.8 °F 88% 29.80 in 5.0 mi North 16.1 mph - 0.01 in Rain Light Rain
1:23 AM 73.4 °F - 69.8 °F 88% 29.80 in 4.0 mi North 13.8 mph - 0.08 in Rain Rain
1:54 AM 72.0 °F - 70.0 °F 93% 29.77 in 4.0 mi North 17.3 mph 25.3 mph 0.21 in Rain Rain
2:02 AM 71.6 °F - 69.8 °F 94% 29.79 in 4.0 mi North 13.8 mph 25.3 mph 0.02 in Rain Rain
2:54 AM 73.0 °F - 70.0 °F 90% 29.76 in 3.0 mi North 15.0 mph 24.2 mph 0.19 in Rain Heavy Rain
3:09 AM 73.4 °F - 69.8 °F 88% 29.78 in 2.5 mi North 15.0 mph 25.3 mph 0.07 in Rain Heavy Rain
3:20 AM 71.6 °F - 69.8 °F 94% 29.78 in 2.0 mi North 13.8 mph 20.7 mph 0.16 in Rain Heavy Rain
3:23 AM 71.6 °F - 69.8 °F 94% 29.78 in 2.0 mi North 15.0 mph 21.9 mph 0.19 in Rain Heavy Rain
3:30 AM 71.6 °F - 69.8 °F 94% 29.78 in 1.8 mi North 15.0 mph 24.2 mph 0.25 in Rain Heavy Rain
3:39 AM 71.6 °F - 69.8 °F 94% 29.78 in 2.0 mi North 15.0 mph 27.6 mph 0.32 in Rain Heavy Rain
3:54 AM 72.0 °F - 70.0 °F 93% 29.76 in 2.0 mi North 16.1 mph 21.9 mph 0.45 in Rain Heavy Rain
4:05 AM 71.6 °F - 69.8 °F 94% 29.78 in 1.8 mi North 13.8 mph 19.6 mph 0.12 in Rain Heavy Rain
4:12 AM 71.6 °F - 69.8 °F 94% 29.77 in 3.0 mi North 15.0 mph - 0.14 in Rain Rain
4:25 AM 73.4 °F - 69.8 °F 88% 29.77 in 3.0 mi North 16.1 mph 23.0 mph 0.18 in Rain Heavy Rain
4:33 AM 73.4 °F - 69.8 °F 88% 29.77 in 2.5 mi North 19.6 mph 26.5 mph 0.22 in Rain Heavy Rain
4:42 AM 73.4 °F - 69.8 °F 88% 29.78 in 3.0 mi North 13.8 mph 25.3 mph 0.25 in Rain Rain
4:54 AM 73.0 °F - 70.0 °F 90% 29.75 in 3.0 mi North 13.8 mph 25.3 mph 0.28 in Rain Rain
5:14 AM 73.4 °F - 69.8 °F 88% 29.77 in 2.5 mi North 15.0 mph 21.9 mph 0.09 in Rain Heavy Rain
5:47 AM 73.4 °F - 69.8 °F 88% 29.78 in 3.0 mi North 18.4 mph 29.9 mph 0.33 in Rain Heavy Rain
5:54 AM 73.0 °F - 70.0 °F 90% 29.76 in 4.0 mi North 16.1 mph 29.9 mph 0.35 in Rain Rain
6:54 AM 73.0 °F - 70.0 °F 90% 29.79 in 5.0 mi North 13.8 mph 20.7 mph 0.20 in Rain Rain
7:16 AM 73.4 °F - 69.8 °F 88% 29.82 in 6.0 mi North 16.1 mph 20.7 mph 0.05 in Rain Rain
7:30 AM 73.4 °F - 69.8 °F 88% 29.82 in 6.0 mi North 11.5 mph 21.9 mph 0.07 in Rain Light Rain
7:54 AM 73.0 °F - 69.1 °F 87% 29.81 in 10.0 mi North 16.1 mph - 0.08 in Rain Light Rain
8:01 AM 73.4 °F - 69.8 °F 88% 29.83 in 10.0 mi North 12.7 mph 20.7 mph 0.00 in Rain Light Rain
8:43 AM 73.4 °F - 69.8 °F 88% 29.83 in 10.0 mi North 15.0 mph 24.2 mph 0.01 in Rain Light Rain
8:50 AM 73.4 °F - 69.8 °F 88% 29.83 in 7.0 mi North 15.0 mph 21.9 mph 0.01 in Rain Light Rain
8:54 AM 73.0 °F - 70.0 °F 90% 29.81 in 6.0 mi North 15.0 mph 21.9 mph 0.02 in Rain Light Rain
9:54 AM 73.9 °F - 70.0 °F 87% 29.83 in 4.0 mi North 12.7 mph 23.0 mph 0.08 in Rain Light Rain
10:54 AM 75.0 °F - 70.0 °F 84% 29.85 in 10.0 mi North 12.7 mph 20.7 mph 0.02 in Rain Light Rain
11:54 AM 75.0 °F - 70.0 °F 84% 29.86 in 10.0 mi North 9.2 mph - 0.01 in Rain Light Rain
12:54 PM 75.0 °F - 70.0 °F 84% 29.86 in 4.0 mi North 12.7 mph 18.4 mph 0.02 in Rain Light Rain
1:40 PM 77.0 °F - 69.8 °F 78% 29.87 in 10.0 mi NNW 17.3 mph 26.5 mph 0.02 in Rain Light Rain
1:54 PM 78.8 °F - 69.8 °F 74% 29.87 in 10.0 mi North 18.4 mph 27.6 mph N/A   Overcast
2:54 PM 78.8 °F - 69.8 °F 74% 29.87 in 10.0 mi North 19.6 mph 29.9 mph N/A   Overcast
3:54 PM 80.1 °F 82.9 °F 69.1 °F 69% 29.85 in 10.0 mi North 19.6 mph 29.9 mph N/A   Overcast
4:29 PM 80.6 °F 83.9 °F 69.8 °F 70% 29.88 in 10.0 mi NNE 18.4 mph 24.2 mph N/A   Overcast
4:54 PM 79.0 °F - 69.1 °F 72% 29.87 in 10.0 mi North 15.0 mph - N/A   Overcast
5:54 PM 78.1 °F - 69.1 °F 74% 29.88 in 10.0 mi North 10.4 mph - N/A   Overcast
6:54 PM 79.0 °F - 68.0 °F 69% 29.89 in 10.0 mi North 10.4 mph - N/A   Overcast
7:54 PM 78.1 °F - 68.0 °F 71% 29.89 in 10.0 mi North 5.8 mph - N/A   Overcast
8:54 PM 78.8 °F - 66.2 °F 65% 29.93 in 10.0 mi North 6.9 mph - N/A   Overcast
9:54 PM 77.0 °F - 66.9 °F 71% 29.93 in 10.0 mi North 5.8 mph - N/A   Mostly Cloudy
10:54 PM 75.2 °F - 66.2 °F 73% 29.94 in 10.0 mi North 4.6 mph - N/A   Clear
11:54 PM 73.9 °F - 66.9 °F 79% 29.92 in 10.0 mi NNW 4.6 mph - N/A   Clear